| time (UTC) | temp F | wind direction | speed MPH | gust MPH | rain 1hr in | rain 24hr in | rain mn in | humidity % | barometer mb |
| 20260506114557 | 53 | 23 | 6.0 | 17.0 | 0.00 | 0.00 | 0.00 | 73 | 1012.8 |
| 20260506113056 | 51 | 327 | 7.0 | 15.0 | 0.00 | 0.00 | 0.00 | 76 | 1012.7 |
| 20260506111552 | 51 | 28 | 7.0 | 16.0 | 0.00 | 0.00 | 0.00 | 77 | 1012.7 |
| 20260506110104 | 52 | 265 | 8.0 | 16.0 | 0.00 | 0.00 | 0.00 | 77 | 1012.7 |
| 20260506104557 | 51 | 306 | 4.0 | 11.0 | 0.00 | 0.00 | 0.00 | 80 | 1012.7 |
| 20260506103056 | 50 | 333 | 4.0 | 11.0 | 0.00 | 0.00 | 0.00 | 83 | 1012.8 |
| 20260506101605 | 51 | 5 | 3.0 | 16.0 | 0.00 | 0.00 | 0.00 | 76 | 1012.7 |
| 20260506100053 | 53 | 348 | 5.0 | 13.0 | 0.00 | 0.00 | 0.00 | 70 | 1012.5 |
| 20260506094557 | 53 | 22 | 3.0 | 16.0 | 0.00 | 0.00 | 0.00 | 68 | 1012.4 |
| 20260506093100 | 52 | 22 | 6.0 | 16.0 | 0.00 | 0.00 | 0.00 | 69 | 1012.4 |
| 20260506091556 | 51 | 34 | 5.0 | 15.0 | 0.00 | 0.00 | 0.00 | 71 | 1012.4 |
| 20260506090107 | 51 | 331 | 5.0 | 14.0 | 0.00 | 0.00 | 0.00 | 71 | 1012.3 |
| 20260506084618 | 50 | 302 | 4.0 | 14.0 | 0.00 | 0.00 | 0.00 | 73 | 1012.5 |
| 20260506083055 | 48 | 319 | 5.0 | 13.0 | 0.00 | 0.00 | 0.00 | 76 | 1012.3 |
| 20260506081603 | 48 | 360 | 7.0 | 15.0 | 0.00 | 0.00 | 0.00 | 76 | 1012.4 |
| 20260506073101 | 47 | 360 | 7.0 | 15.0 | 0.00 | 0.00 | 0.00 | 79 | 1012.5 |
| 20260506071559 | 47 | 292 | 3.0 | 9.0 | 0.00 | 0.00 | 0.00 | 82 | 1012.3 |
| 20260506061556 | 43 | 9 | 5.0 | 11.0 | 0.00 | 0.00 | 0.00 | 86 | 1011.9 |
| 20260506050113 | 43 | 360 | 2.0 | 9.0 | 0.00 | 0.00 | 0.00 | 84 | 1011.9 |
| 20260506044554 | 43 | 336 | 3.0 | 9.0 | 0.00 | 0.00 | 0.00 | 83 | 1011.9 |
| 20260506043054 | 44 | 352 | 4.0 | 10.0 | 0.00 | 0.00 | 0.00 | 83 | 1011.8 |
| 20260506041603 | 44 | 5 | 3.0 | 12.0 | 0.00 | 0.00 | 0.00 | 82 | 1011.9 |
| 20260506040057 | 45 | 343 | 5.0 | 13.0 | 0.00 | 0.00 | 0.00 | 81 | 1011.9 |
| 20260506034556 | 45 | 344 | 4.0 | 10.0 | 0.00 | 0.00 | 0.00 | 80 | 1012.0 |
| 20260506033053 | 46 | 32 | 5.0 | 12.0 | 0.00 | 0.00 | 0.00 | 80 | 1012.1 |
| 20260506031555 | 46 | 29 | 5.0 | 13.0 | 0.00 | 0.00 | 0.00 | 80 | 1012.1 |
| 20260506030056 | 47 | 10 | 5.0 | 14.0 | 0.00 | 0.00 | 0.00 | 79 | 1012.2 |
| 20260506024606 | 47 | 12 | 6.0 | 15.0 | 0.00 | 0.00 | 0.00 | 79 | 1012.2 |
| 20260506023109 | 47 | 344 | 6.0 | 14.0 | 0.00 | 0.00 | 0.00 | 78 | 1012.3 |
| 20260506021554 | 47 | 296 | 5.0 | 12.0 | 0.00 | 0.00 | 0.00 | 78 | 1012.4 |
| 20260506020059 | 48 | 5 | 5.0 | 12.0 | 0.00 | 0.00 | 0.00 | 79 | 1012.5 |
| 20260506014559 | 48 | 330 | 2.0 | 11.0 | 0.00 | 0.00 | 0.00 | 79 | 1012.6 |
| 20260506013104 | 48 | 36 | 3.0 | 9.0 | 0.00 | 0.00 | 0.00 | 80 | 1012.7 |
| 20260506011606 | 48 | 352 | 4.0 | 9.0 | 0.00 | 0.00 | 0.00 | 80 | 1012.5 |
| 20260506010055 | 48 | 360 | 3.0 | 15.0 | 0.00 | 0.00 | 0.00 | 80 | 1012.6 |
| 20260506004600 | 49 | 9 | 5.0 | 13.0 | 0.00 | 0.00 | 0.00 | 81 | 1012.7 |
| 20260506003059 | 49 | 333 | 2.0 | 8.0 | 0.00 | 0.00 | 0.00 | 81 | 1012.7 |
| 20260506001601 | 49 | 350 | 3.0 | 8.0 | 0.00 | 0.00 | 0.00 | 80 | 1012.8 |
| 20260506000105 | 49 | 340 | 3.0 | 10.0 | 0.00 | 0.00 | 0.00 | 80 | 1012.8 |
| 20260505234558 | 49 | 5 | 4.0 | 11.0 | 0.00 | 0.00 | 0.00 | 79 | 1012.9 |
| 20260505233058 | 49 | 29 | 3.0 | 9.0 | 0.00 | 0.00 | 0.00 | 79 | 1013.0 |
| 20260505231558 | 50 | 348 | 2.0 | 7.0 | 0.00 | 0.00 | 0.00 | 78 | 1013.0 |
| 20260505230122 | 50 | 5 | 1.0 | 8.0 | 0.00 | 0.00 | 0.00 | 77 | 1013.0 |
| 20260505224555 | 50 | 360 | 2.0 | 9.0 | 0.00 | 0.00 | 0.00 | 77 | 1013.0 |
| 20260505223054 | 50 | 348 | 2.0 | 10.0 | 0.00 | 0.00 | 0.00 | 76 | 1013.1 |
| 20260505221559 | 51 | 15 | 4.0 | 12.0 | 0.00 | 0.00 | 0.00 | 75 | 1013.1 |
| 20260505214609 | 51 | 21 | 4.0 | 10.0 | 0.00 | 0.00 | 0.00 | 75 | 1013.1 |
| 20260505213054 | 51 | 36 | 3.0 | 11.0 | 0.00 | 0.00 | 0.00 | 75 | 1013.0 |
| 20260505211601 | 52 | 22 | 2.0 | 10.0 | 0.00 | 0.00 | 0.00 | 75 | 1013.0 |
| 20260505204603 | 52 | 42 | 5.0 | 13.0 | 0.00 | 0.00 | 0.00 | 79 | 1013.0 |
| 20260505203106 | 53 | 5 | 4.0 | 9.0 | 0.00 | 0.00 | 0.00 | 79 | 1012.9 |
| 20260505201555 | 53 | 40 | 2.0 | 7.0 | 0.00 | 0.00 | 0.00 | 79 | 1012.8 |
| 20260505200106 | 54 | 10 | 2.0 | 8.0 | 0.00 | 0.00 | 0.00 | 78 | 1012.8 |
| 20260505194551 | 54 | 21 | 3.0 | 10.0 | 0.00 | 0.00 | 0.00 | 76 | 1012.6 |
| 20260505193102 | 55 | 86 | 2.0 | 15.0 | 0.00 | 0.00 | 0.00 | 73 | 1012.4 |
| 20260505191557 | 55 | 40 | 2.0 | 9.0 | 0.00 | 0.00 | 0.00 | 70 | 1012.3 |
| 20260505190054 | 56 | 16 | 4.0 | 12.0 | 0.00 | 0.00 | 0.00 | 69 | 1012.1 |
| 20260505184557 | 56 | 5 | 6.0 | 12.0 | 0.00 | 0.00 | 0.00 | 66 | 1011.9 |
| 20260505183057 | 56 | 0 | 1.0 | 5.0 | 0.00 | 0.00 | 0.00 | 63 | 1011.7 |
| 20260505181559 | 56 | 38 | 1.0 | 4.0 | 0.00 | 0.00 | 0.00 | 62 | 1011.7 |
| 20260505180058 | 56 | 0 | 2.0 | 6.0 | 0.00 | 0.00 | 0.00 | 62 | 1011.5 |
| 20260505174602 | 56 | 98 | 2.0 | 6.0 | 0.00 | 0.00 | 0.00 | 61 | 1011.5 |
| 20260505173055 | 56 | 109 | 2.0 | 6.0 | 0.00 | 0.00 | 0.00 | 60 | 1011.6 |
| 20260505171556 | 57 | 107 | 3.0 | 8.0 | 0.00 | 0.00 | 0.00 | 60 | 1011.6 |
| 20260505170055 | 57 | 106 | 3.0 | 6.0 | 0.00 | 0.00 | 0.00 | 60 | 1011.6 |
| 20260505164554 | 57 | 100 | 3.0 | 6.0 | 0.00 | 0.00 | 0.00 | 60 | 1011.6 |
| 20260505163054 | 57 | 148 | 2.0 | 9.0 | 0.00 | 0.00 | 0.00 | 59 | 1011.7 |
| 20260505161551 | 58 | 133 | 4.0 | 10.0 | 0.00 | 0.00 | 0.00 | 58 | 1011.7 |
| 20260505153055 | 59 | 110 | 3.0 | 8.0 | 0.00 | 0.00 | 0.00 | 60 | 1011.8 |
| 20260505151556 | 58 | 94 | 5.0 | 8.0 | 0.00 | 0.00 | 0.00 | 61 | 1011.9 |
| 20260505150106 | 57 | 136 | 4.0 | 9.0 | 0.00 | 0.00 | 0.00 | 63 | 1012.0 |
| 20260505130109 | 62 | 37 | 3.0 | 10.0 | 0.00 | 0.00 | 0.00 | 48 | 1012.2 |
| 20260505124558 | 62 | 349 | 1.0 | 9.0 | 0.00 | 0.00 | 0.00 | 49 | 1012.1 |
| 20260505123057 | 62 | 325 | 3.0 | 9.0 | 0.00 | 0.00 | 0.00 | 50 | 1012.0 |
| 20260505121559 | 62 | 80 | 2.0 | 9.0 | 0.00 | 0.00 | 0.00 | 49 | 1012.1 |
| 20260505120113 | 61 | 132 | 3.0 | 9.0 | 0.00 | 0.00 | 0.00 | 47 | 1012.2 |